Location: Boiro
(42.6475°N, 8.8834°W)
Time: 23:44:44
(UTC+01:00)

A-11 Canister half - Pass Details

Date: 09 December 2021
Orbit: 1516 x 1684 km, 47.2° (Epoch: 18 January)

Event Time Altitude Azimuth Distance (km) Brightness Sun altitude
Rises 12:30:13 0° 294° (WNW) 4,850 11.3 23.1°
Reaches altitude 10° 12:33:19 10° 293° (WNW) 3,882 10.8 23.3°
Maximum altitude 12:43:19 80° 209° (SSW) 1,696 9.8 23.7°
Drops below altitude 10° 12:53:28 10° 124° (SE) 3,942 11.9 24.0°
Sets 12:56:38 0° 124° (ESE) 4,927 12.2 24.1°
